Hourly Data Report for September 14, 2017

All times are specified in Local Standard Time (LST). Add 1 hour to adjust for Daylight Saving Time where and when it is observed.

WOODSTOCK NEWBRIDGE
NEW BRUNSWICK

46°09'08.000" N
67°32'34.000" W
154.00 m
8105603
71606
EWD

Download Data

Hourly Data (September 2017)
Hourly Data Report for September 14, 2017
Temp Definition
°C
Dew Point Temp Definition
°C
Rel Hum Definition
%
Wind Dir Definition
10's deg

Wind Spd Definition
km/h
Visibility Definition
km
Stn Press Definition
kPa
Hmdx Definition


Wind Chill Definition


Weather Definition


TIME
00:00 12.2 10.7 90 20 2   99.02     LegendNANA
01:00 11.5 10.4 93 19 1   99.03     LegendNANA
02:00 11.1 10.4 95 19 6   99.05     LegendNANA
03:00 13.2 12.1 93 19 6   99.05     LegendNANA
04:00 11.1 10.4 95   0   99.06     LegendNANA
05:00 10.1 9.3 95   0   99.09     LegendNANA
06:00 9.8 9.2 96   0   99.11     LegendNANA
07:00 10.9 10.3 96   0   99.18     LegendNANA
08:00 16.3 13.4 83 19 2   99.19     LegendNANA
09:00 18.6 14.0 74 18 5   99.24     LegendNANA
10:00 20.7 15.0 70 23 5   99.26 25   LegendNANA
11:00 22.7 15.5 64 25 6   99.22 27   LegendNANA
12:00 24.0 15.0 57 23 9   99.19 28   LegendNANA
13:00 25.3 15.4 54 27 7   99.18 30   LegendNANA
14:00 26.8 15.2 49 22 5   99.14 31   LegendNANA
15:00 27.2 14.3 45 22 9   99.14 31   LegendNANA
16:00 27.0 14.6 46 24 11   99.15 31   LegendNANA
17:00 26.5 13.6 45 25 10   99.17 30   LegendNANA
18:00 23.5 15.1 59 24 1   99.24 28   LegendNANA
19:00 18.7 14.7 77   0   99.31     LegendNANA
20:00 16.5 14.2 86   0   99.39     LegendNANA
21:00 15.4 13.9 90   0   99.42     LegendNANA
22:00 15.2 13.4 89 34 1   99.51     LegendNANA
23:00 17.2 15.0 87 31 3   99.56     LegendNANA

Notes on Data Quality.

Legend

  • E = Estimated
  • M = Missing
  • NA = Not Available
  • ‡ = Partner data that is not subject to review by the National Climate Archives
Date modified: